Flag for Canada Weather past 2 weeks in Saint-Jérôme, Quebec, Canada

Now
64 °F

Passing clouds.


Feels Like: 64 °F
Forecast: 55 / 81 °F
Wind: No wind

Location: Montreal / Mirabel

Current Time: Sep 1, 2015 at 11:16:21 AM

Latest Report: Sep 1, 2015 at 9:00 AM


Visibility: 20 mi

Pressure: 30.08 "Hg

Humidity: 83%

Dew point: 59 °F

Location of Saint-JérômeLocation

Historic Weather in Saint-Jérôme — Graph

°F

Saint-Jérôme temperature yesterday

Maximum temperature yesterday: 75 °F (at 3:00 PM)
Minimum temperature yesterday: 63 °F (at 3:00 AM)
Average temperature yesterday: 68 °F

Past Weeks' High & Low Weather Summary

 TemperatureHumidityPressure
High88 °F (Aug 19, 4:00 PM)100% (Aug 18, 2:00 AM)30.18 "Hg (Aug 18, 2:00 AM)
Low54 °F (Aug 28, 5:00 AM)48% (Aug 23, 5:00 PM)29.78 "Hg (Aug 24, 4:00 PM)
Average69 °F81%29.99 "Hg
* Reported Aug 17 9:00 AM — Sep 1 9:00 AM, Saint-Jérôme, Weather by CustomWeather, © 2015

Note: Actual official high and low records may vary slightly from our data, if they occured in-between our weather recording intervals... More about our weather records

Advertising

Saint-Jérôme weather history for previous 24 hours

 ConditionsComfort  
Time TempWeatherWind HumidityBarometerVisibility
9:00 AM
Tue, Sep 1
64 °FPassing clouds.No wind83%30.08 "Hg20 mi
8:00 AM59 °FScattered clouds.3 mph94%30.08 "Hg20 mi
7:00 AM55 °FFog.No wind94%30.08 "Hg25 mi
6:00 AM55 °FPassing clouds.No wind94%30.06 "Hg20 mi
5:00 AM54 °FClear.No wind100%30.05 "Hg25 mi
4:00 AM57 °FClear.3 mph94%30.04 "Hg25 mi
3:00 AM55 °FClear.No wind100%30.04 "Hg25 mi
2:00 AM59 °FFog.No wind100%30.02 "Hg15 mi
1:00 AM57 °FFog.2 mph100%30.01 "Hg15 mi
12:00 AM63 °FFog.No wind94%30.01 "Hg15 mi
11:00 PM
Mon, Aug 31
64 °FClear.2 mph94%30.00 "Hg15 mi
10:00 PM68 °FClear.3 mph88%29.98 "Hg15 mi
9:00 PM70 °FClear.3 mph83%29.97 "Hg15 mi
8:00 PM70 °FPartly sunny.2 mph83%29.96 "Hg15 mi
7:00 PM73 °FPartly sunny.5 mph74%29.93 "Hg15 mi
6:00 PM75 °FPartly sunny.5 mph69%29.93 "Hg15 mi
5:00 PM75 °FBroken clouds.12 mph69%29.92 "Hg15 mi
4:00 PM75 °FBroken clouds.13 mph69%29.92 "Hg15 mi
3:00 PM75 °FPartly sunny.9 mph65%29.92 "Hg15 mi
2:00 PM73 °FOvercast.7 mph69%29.93 "Hg15 mi
12:00 PM72 °FOvercast.12 mph73%29.93 "Hg15 mi
11:00 AM70 °FPartly sunny.9 mph83%29.92 "Hg10 mi
Weather by CustomWeather, © 2015

See weather overviewHow to use our weather pages